Waarnemingen

Advertentie
Mijn weer
Volkel, Nederland (6375): temperatuur & dauwpunt: 19.09.2018 11:00:00 - 25.09.2018 11:00:00 (CEST)Volkel, Nederland (6375): temperatuur 5cm: 19.09.2018 11:00:00 - 25.09.2018 11:00:00 (CEST)Volkel, Nederland (6375): windsnelheid & windstoten: 19.09.2018 11:00:00 - 25.09.2018 11:00:00 (CEST)Volkel, Nederland (6375): windrichting: 19.09.2018 11:00:00 - 25.09.2018 11:00:00 (CEST)Volkel, Nederland (6375): luchtdruk: 19.09.2018 11:00:00 - 25.09.2018 11:00:00 (CEST)Volkel, Nederland (6375): zicht: 19.09.2018 11:00:00 - 25.09.2018 11:00:00 (CEST)Volkel, Nederland (6375): neerslag: 19.09.2018 11:00:00 - 25.09.2018 11:00:00 (CEST)
Datum & Tijd tt [°C] td [°C] tt 5cm [°C] ff [km/u] ff [kn] fx [km/u] fx [kn] dd ppp [hPa] vv [km] rr [mm]
25.09.2018 11:00:00 13,2 6,7 15,3 4 2 7 4 - 1039,7 10 0,0
25.09.2018 10:00:00 11,3 7,8 11,7 2 1 4 2 - 1039,5 10 0,0
25.09.2018 09:00:00 6,9 6,2 5,9 0 0 4 2 N 1038,8 10 0,0
25.09.2018 08:00:00 3,2 2,9 -0,4 2 1 4 2 ZW 1038,4 10 0,0
25.09.2018 07:00:00 3,2 3,2 -0,4 4 2 7 4 WZW 1038,2 10 0,0
25.09.2018 06:00:00 3,5 3,3 0,1 4 2 7 4 ZW 1037,9 10 0,0
25.09.2018 05:00:00 4,6 4,6 1,6 5 3 11 6 WZW 1038,0 10 0,0
25.09.2018 04:00:00 4,7 4,4 2,5 8 4 11 6 ZW 1037,8 10 0,0
25.09.2018 03:00:00 5,3 5,3 0,8 5 3 7 4 WZW 1038,1 10 0,0
25.09.2018 02:00:00 5,5 5,5 1,6 5 3 11 6 WZW 1037,7 10 0,0
25.09.2018 01:00:00 5,2 4,9 2,4 5 3 11 6 WNW 1038,0 10 0,0
25.09.2018 00:00:00 5,9 5,3 2,5 5 3 11 6 WZW 1037,7 10 0,0
24.09.2018 23:00:00 6,4 6,0 2,0 4 2 7 4 ZW 1037,3 10 0,0
24.09.2018 22:00:00 6,7 6,3 3,3 2 1 7 4 WNW 1036,9 10 0,0
24.09.2018 21:00:00 7,1 5,3 3,8 4 2 7 4 - 1036,3 10 0,0
24.09.2018 20:00:00 9,6 5,9 6,1 2 1 18 10 NNW 1035,7 10 0,0
24.09.2018 19:00:00 12,3 5,3 11,6 11 6 25 14 N 1035,2 10 0,0
24.09.2018 18:00:00 13,2 4,8 12,5 13 7 32 18 NNW 1034,8 10 0,0
24.09.2018 17:00:00 14,5 3,3 14,7 15 8 29 16 NNW 1034,6 10 0,0
24.09.2018 16:00:00 14,9 4,7 14,1 15 8 29 16 NNW 1034,5 10 0,0
24.09.2018 15:00:00 14,4 6,7 13,0 11 6 25 14 NNW 1034,3 10 0,0
24.09.2018 14:00:00 13,8 8,9 15,7 9 5 25 14 W 1034,5 10 0,3
24.09.2018 13:00:00 9,6 6,9 10,1 15 8 43 23 W 1034,9 10 0,6
24.09.2018 12:00:00 12,7 8,1 12,6 13 7 22 12 W 1034,0 10 0,0
24.09.2018 11:00:00 12,4 7,7 13,7 13 7 25 14 W 1033,8 10 0,0
24.09.2018 10:00:00 11,4 7,5 11,3 11 6 22 12 W 1033,2 10 0,0
24.09.2018 09:00:00 9,4 7,1 9,0 11 6 18 10 WZW 1032,0 10 0,0
24.09.2018 08:00:00 7,0 5,7 3,8 11 6 18 10 WZW 1031,3 10 0,0
24.09.2018 07:00:00 4,4 3,6 3,3 9 5 14 8 WZW 1030,6 10 0,0
24.09.2018 06:00:00 5,6 4,8 3,4 9 5 14 8 WZW 1029,9 10 0,0
24.09.2018 05:00:00 6,6 5,4 4,8 11 6 18 10 W 1029,1 10 0,0
24.09.2018 04:00:00 6,9 5,6 4,8 9 5 18 10 W 1028,4 10 0,0
24.09.2018 03:00:00 7,3 6,0 5,7 11 6 14 8 WZW 1027,7 10 0,0
24.09.2018 02:00:00 7,4 6,4 5,9 9 5 14 8 W 1026,4 10 0,0
24.09.2018 01:00:00 8,1 7,3 7,0 11 6 14 8 W 1025,6 10 0,0
24.09.2018 00:00:00 8,1 7,5 6,3 8 4 14 8 W 1024,4 10 0,0
23.09.2018 23:00:00 9,0 8,2 7,9 8 4 14 8 W 1023,0 10 0,0
23.09.2018 22:00:00 9,5 8,8 9,1 8 4 14 8 W 1021,8 10 0,1
23.09.2018 21:00:00 9,5 8,6 9,1 9 5 14 8 W 1019,9 10 0,1
23.09.2018 20:00:00 9,2 8,4 8,9 8 4 18 10 W 1018,4 10 0,3
23.09.2018 19:00:00 9,6 8,0 9,4 8 4 22 12 NW 1016,7 10 0,0
23.09.2018 18:00:00 10,1 7,9 10,0 9 5 32 18 NNW 1014,6 10 0,0
23.09.2018 17:00:00 10,2 8,5 10,2 15 8 29 16 N 1012,9 10 0,3
23.09.2018 16:00:00 10,8 9,9 10,8 13 7 32 18 N 1011,7 9 0,8
23.09.2018 15:00:00 10,7 10,1 10,8 16 9 25 14 N 1010,6 8 1,9
23.09.2018 14:00:00 10,8 10,2 10,7 13 7 32 18 N 1010,9 5 2,3
23.09.2018 13:00:00 11,1 10,6 11,2 13 7 25 14 N 1009,9 2,8 3,3
23.09.2018 12:00:00 11,3 10,8 11,4 9 5 18 10 NNO 1011,1 2,0 1,7
23.09.2018 11:00:00 11,5 10,8 11,7 9 5 14 8 NO 1010,8 2,9 0,5
23.09.2018 10:00:00 11,3 10,8 11,5 8 4 14 8 NNO 1011,8 2,4 0,0
23.09.2018 09:00:00 11,0 10,6 11,0 9 5 14 8 NO 1011,9 2,3 0,0
23.09.2018 08:00:00 10,8 10,6 10,7 8 4 14 8 ONO 1012,4 2,5 0,0
23.09.2018 07:00:00 10,6 10,3 10,5 9 5 14 8 NO 1012,4 3,1 0,0
23.09.2018 06:00:00 10,5 10,2 10,4 9 5 14 8 O 1012,5 3,1 0,0
23.09.2018 05:00:00 10,4 10,1 10,3 9 5 14 8 OZO 1013,7 2,5 0,0
23.09.2018 04:00:00 10,3 10,0 10,3 8 4 11 6 OZO 1014,5 3,2 0,0
23.09.2018 03:00:00 10,2 9,8 10,0 8 4 18 10 ZO 1015,4 10 0,0
23.09.2018 02:00:00 10,3 9,8 10,0 9 5 14 8 ZZO 1015,7 10 0,0
23.09.2018 01:00:00 10,3 9,8 10,0 11 6 14 8 Z 1016,7 10 0,1
23.09.2018 00:00:00 10,5 9,7 10,2 11 6 18 10 Z 1017,4 10 0,0
22.09.2018 23:00:00 10,7 10,1 10,4 11 6 14 8 Z 1018,0 10 0,1
22.09.2018 22:00:00 10,8 10,3 10,4 8 4 11 6 Z 1018,4 10 0,1
22.09.2018 21:00:00 10,7 10,3 10,4 5 3 14 8 ZZW 1018,7 10 0,3
22.09.2018 20:00:00 11,0 9,9 10,6 11 6 14 8 ZW 1018,6 10 0,1
22.09.2018 19:00:00 11,4 10,0 11,1 13 7 22 12 ZW 1018,4 10 0,1
22.09.2018 18:00:00 11,8 10,1 11,6 13 7 22 12 WZW 1019,2 10 0,3
22.09.2018 17:00:00 11,7 10,4 11,5 9 5 22 12 W 1019,2 10 0,7
22.09.2018 16:00:00 12,9 9,5 12,7 9 5 32 18 WNW 1018,9 10 0,1
22.09.2018 15:00:00 15,3 8,8 14,9 22 12 43 23 WZW 1018,9 10 0,0
22.09.2018 14:00:00 15,6 8,5 15,5 26 14 40 21 ZW 1019,0 10 0,0
22.09.2018 13:00:00 15,4 9,5 15,5 24 13 47 25 WZW 1019,2 10 0,0
22.09.2018 12:00:00 15,4 10,1 15,5 26 14 36 19 ZW 1019,2 10 0,0
22.09.2018 11:00:00 14,2 10,3 14,0 21 11 32 18 ZW 1019,8 10 0,0
22.09.2018 10:00:00 12,3 9,5 12,1 21 11 29 16 ZW 1019,7 10 0,0
22.09.2018 09:00:00 11,4 8,8 11,1 18 10 29 16 ZW 1019,4 10 0,0
22.09.2018 08:00:00 10,6 8,4 9,8 18 10 25 14 ZW 1019,2 10 0,0
22.09.2018 07:00:00 10,2 8,3 8,9 13 7 18 10 ZW 1018,9 10 0,0
22.09.2018 06:00:00 10,1 8,3 9,1 15 8 22 12 ZW 1018,6 10 0,0
22.09.2018 05:00:00 10,4 8,5 9,6 18 10 25 14 ZW 1018,2 10 0,0
22.09.2018 04:00:00 9,9 8,5 8,8 15 8 22 12 ZW 1017,9 10 0,0
22.09.2018 03:00:00 9,9 8,9 9,0 15 8 25 14 ZW 1017,2 10 0,0
22.09.2018 02:00:00 11,5 9,8 10,5 15 8 36 19 WZW 1016,9 10 0,3
22.09.2018 01:00:00 11,5 9,6 10,8 24 13 47 25 WZW 1016,1 7 2,8
22.09.2018 00:00:00 11,7 9,4 10,6 28 15 43 23 W 1015,0 7 2,6
21.09.2018 23:00:00 13,8 7,5 12,8 29 16 47 25 ZW 1013,6 10 0,0
21.09.2018 22:00:00 13,8 7,3 12,9 31 17 47 25 ZW 1012,9 10 0,0
21.09.2018 21:00:00 13,2 7,3 12,0 28 15 43 23 ZW 1012,5 10 0,0
21.09.2018 20:00:00 13,2 6,7 11,9 18 10 43 23 WZW 1011,8 10 0,0
21.09.2018 19:00:00 15,2 4,7 14,0 26 14 50 27 WZW 1010,7 10 0,0
21.09.2018 18:00:00 16,0 4,2 15,8 31 17 54 29 WZW 1010,5 10 0,0
21.09.2018 17:00:00 15,7 4,3 15,3 34 18 54 29 W 1010,6 10 0,0
21.09.2018 16:00:00 16,4 6,2 16,9 24 13 50 27 W 1009,9 10 0,0
21.09.2018 15:00:00 15,7 6,8 15,9 28 15 47 25 W 1009,1 10 0,0
21.09.2018 14:00:00 15,8 7,4 14,7 29 16 50 27 W 1008,1 10 0,0
21.09.2018 13:00:00 15,6 10,2 15,7 26 14 50 27 WZW 1007,0 10 0,0
21.09.2018 12:00:00 16,4 12,0 16,1 24 13 40 21 WZW 1006,0 10 0,0
21.09.2018 11:00:00 15,7 12,5 15,2 22 12 43 23 WZW 1005,2 10 0,0
21.09.2018 10:00:00 15,5 13,3 14,9 29 16 65 35 WZW 1003,7 10 0,9
21.09.2018 09:00:00 17,8 14,6 16,6 31 17 58 31 ZZW 1002,4 10 1,4
21.09.2018 08:00:00 19,2 13,1 18,6 35 19 61 33 ZZW 1001,9 10 0,0
21.09.2018 07:00:00 19,7 12,4 18,8 26 14 43 23 ZZW 1002,1 10 0,0
21.09.2018 06:00:00 19,8 12,7 18,9 28 15 43 23 ZZW 1002,9 10 0,0
21.09.2018 05:00:00 19,8 12,9 18,8 26 14 40 21 ZZW 1003,5 10 0,0
21.09.2018 04:00:00 20,1 12,9 18,8 22 12 32 18 Z 1004,5 10 0,0
21.09.2018 03:00:00 20,1 12,9 19,1 22 12 32 18 Z 1005,8 10 0,0
21.09.2018 02:00:00 19,8 13,0 18,7 18 10 32 18 Z 1006,9 10 0,0
21.09.2018 01:00:00 20,1 12,8 18,9 21 11 32 18 Z 1007,7 10 0,0
21.09.2018 00:00:00 20,2 12,6 19,1 21 11 29 16 Z 1008,4 10 0,0
20.09.2018 23:00:00 20,2 12,8 18,9 15 8 25 14 Z 1009,5 10 0,0
20.09.2018 22:00:00 20,8 13,1 19,0 15 8 22 12 Z 1010,4 10 0,0
20.09.2018 21:00:00 20,7 13,3 18,4 11 6 14 8 Z 1011,0 10 0,0
20.09.2018 20:00:00 21,3 13,1 19,1 13 7 22 12 Z 1011,4 10 0,0
20.09.2018 19:00:00 23,2 13,1 22,1 15 8 32 18 ZZW 1012,0 10 0,0
20.09.2018 18:00:00 24,5 12,7 24,2 18 10 40 21 ZZW 1012,6 10 0,0
20.09.2018 17:00:00 24,6 12,8 25,3 22 12 36 19 ZZW 1013,3 10 0,0
20.09.2018 16:00:00 24,7 12,9 25,9 28 15 43 23 ZZW 1014,2 10 0,0
20.09.2018 15:00:00 24,3 12,7 25,9 28 15 43 23 ZZW 1014,9 10 0,0
20.09.2018 14:00:00 22,9 13,3 23,7 34 18 47 25 ZW 1015,5 10 0,0
20.09.2018 13:00:00 22,5 14,4 23,8 28 15 36 19 ZW 1016,0 10 0,0
20.09.2018 12:00:00 21,0 14,7 21,4 26 14 36 19 ZZW 1016,4 10 0,0
20.09.2018 11:00:00 20,4 14,8 21,0 21 11 - - ZZW 1016,4 10 -
20.09.2018 10:00:00 18,7 14,1 19,0 18 10 32 18 ZZW 1016,8 10 0,0
20.09.2018 09:00:00 16,6 13,2 16,0 11 6 18 10 ZZW 1016,8 10 0,0
20.09.2018 08:00:00 13,8 12,2 11,4 8 4 11 6 ZZW 1016,7 10 0,0
20.09.2018 07:00:00 13,9 11,9 12,8 9 5 14 8 ZZW 1016,9 10 0,0
20.09.2018 06:00:00 15,3 12,4 13,9 9 5 14 8 ZZW 1016,7 10 0,0
20.09.2018 05:00:00 15,5 12,6 13,6 11 6 14 8 Z 1016,8 10 0,0
20.09.2018 04:00:00 14,7 12,0 11,8 9 5 14 8 ZZW 1017,0 10 0,0
20.09.2018 03:00:00 15,3 12,3 12,7 9 5 14 8 ZW 1016,7 10 0,0
20.09.2018 02:00:00 15,9 12,5 14,2 9 5 18 10 ZZW 1017,1 10 0,0
20.09.2018 01:00:00 18,4 13,2 16,8 13 7 18 10 ZZW 1017,3 10 0,0
20.09.2018 00:00:00 17,7 13,2 14,4 9 5 14 8 ZZW 1017,8 10 0,0
19.09.2018 23:00:00 18,7 13,1 16,5 13 7 22 12 ZZW 1017,7 10 0,0
19.09.2018 22:00:00 17,3 12,8 15,6 11 6 18 10 ZZW 1017,6 10 0,0
19.09.2018 21:00:00 17,4 12,6 14,1 8 4 18 10 ZZW 1017,2 10 0,0
19.09.2018 20:00:00 19,5 12,7 18,4 18 10 29 16 ZW 1017,0 10 0,0
19.09.2018 19:00:00 21,9 12,9 20,8 15 8 32 18 WZW 1016,6 10 0,0
19.09.2018 18:00:00 23,2 12,4 22,4 22 12 43 23 WZW 1016,2 10 0,0
19.09.2018 17:00:00 25,0 12,0 25,5 26 14 43 23 WZW 1015,8 10 0,0
19.09.2018 16:00:00 25,4 12,0 26,1 28 15 43 23 ZW 1015,6 10 0,0
19.09.2018 15:00:00 25,1 13,2 26,5 24 13 40 21 ZW 1015,9 10 0,0
19.09.2018 14:00:00 23,8 13,5 25,2 22 12 36 19 WZW 1016,4 10 0,0
19.09.2018 13:00:00 22,9 13,8 24,7 26 14 43 23 WZW 1016,6 10 0,0
19.09.2018 12:00:00 23,0 15,1 23,4 31 17 43 23 ZW 1016,4 10 0,0
19.09.2018 11:00:00 21,7 15,3 22,6 24 13 36 19 ZZW 1016,1 10 0,0

tt = temperatuur
td = dauwpunt
tt 5cm = temperatuur 5cm
ff = windsnelheid
fx = windstoten
dd = windrichting
ppp = luchtdruk
vv = zicht
rr = neerslag

Weerstations in de omgeving